Regional Weather Roundup
Issued by NWS

Home | Current Version | Previous Version | Graphics & Text | Print | Product List | Glossary On
Versions: 1 2 3 4 5 6 7 8 9 10 11 12 13 14 15 16 17 18 19 20 21 22 23 24 25 26 27 28 29 30 31 32 33 34 35 36 37 38 39 40 41 42 43 44 45 46 47 48 49 50
000
ASUS43 KOAX 180602
RWRNE

WEATHER ROUNDUP FOR NEBRASKA
NATIONAL WEATHER SERVICE OMAHA NE
1200 AM CST MON DEC 18 2017

NOTES: SATELLITE DATA IS BEING USED TO AUGMENT CLOUD COVER ABOVE
       12000 FEET.
       "FAIR" INDICATES FEW OR NO CLOUDS BELOW 12,000 FEET WITH NO
       SIGNIFICANT WEATHER AND/OR OBSTRUCTIONS TO VISIBILITY.


NEZ001>004-019>022-054>056-180700-
NEBRASKA PANHANDLE

CITY           SKY/WX    TMP DP  RH WIND       PRES   REMARKS
SCOTTSBLUFF    CLOUDY    22  12  65 N8        29.95R WCI  12
6HR MIN TEMP:  20; 6HR MAX TEMP:  42;

ALLIANCE       CLOUDY    16  12  84 SW12      29.93R WCI   3
6HR MIN TEMP:  15; 6HR MAX TEMP:  29;

CHADRON        CLOUDY    23  16  74 SW6       29.92F WCI  16
6HR MIN TEMP:  23; 6HR MAX TEMP:  37;

GORDON         FAIR      32  20  61 W13       29.88R WCI  22
6HR MIN TEMP:  23; 6HR MAX TEMP:  35;

KIMBALL        CLOUDY    20  19  93 W8        29.95R WCI  11
SIDNEY         CLOUDY    21  18  88 NW12      29.95R WCI   9
6HR MIN TEMP:  17; 6HR MAX TEMP:  30;

$$

NEZ057>060-069>072-079>082-180700-
SOUTHWEST NEBRASKA

CITY           SKY/WX    TMP DP  RH WIND       PRES   REMARKS
NORTH PLATTE   CLOUDY    27  24  89 W6        29.95S WCI  20
6HR MIN TEMP:  24; 6HR MAX TEMP:  33;

IMPERIAL       CLEAR     25  22  88 W9        29.97S WCI  15
6HR MIN TEMP:  24; 6HR MAX TEMP:  33;

LEXINGTON      CLEAR     29  25  88 SW7       29.97S WCI  21
MCCOOK         CLEAR     27  24  89 W12       29.98F WCI  17
6HR MIN TEMP:  25; 6HR MAX TEMP:  38;

OGALLALA       CLEAR     23  20  89 CALM      29.96R
$$

NEZ005>010-023>029-035>040-094-180700-
NORTH CENTRAL NEBRASKA

CITY           SKY/WX    TMP DP  RH WIND       PRES   REMARKS
VALENTINE      CLEAR     31  26  82 W12       29.86R WCI  22
6HR MIN TEMP:  29; 6HR MAX TEMP:  34;

AINSWORTH      CLEAR     31  29  93 SW13      29.86F WCI  21
BROKEN BOW     CLEAR     33  28  81 SW10      29.92F WCI  25
6HR MIN TEMP:  26; 6HR MAX TEMP:  37;

O`NEILL        CLOUDY    30  29  96 S7        29.90F WCI  23
ORD            CLEAR     27  25  92 S3        29.93F
6HR MIN TEMP:  24; 6HR MAX TEMP:  37;

THEDFORD       CLEAR     28  26  89 W5        29.91R WCI  23
$$

NEZ041-046>049-061>064-073>077-083>087-180700-
SOUTH CENTRAL NEBRASKA

CITY           SKY/WX    TMP DP  RH WIND       PRES   REMARKS
GRAND ISLAND   CLEAR     27  25  92 SW7       29.98F WCI  19
6HR MIN TEMP:  24; 6HR MAX TEMP:  37;

AURORA         CLEAR     23  22  95 W5        29.98S WCI  17
HASTINGS       CLEAR     25  22  88 W8        29.99F WCI  16
6HR MIN TEMP:  25; 6HR MAX TEMP:  39;

HEBRON         CLOUDY    27  25  91 CALM      30.00F
HOLDREGE       CLOUDY    28  27  96 SW6       29.98F WCI  21
KEARNEY        CLEAR     29  26  89 SW9       29.98F WCI  20
YORK           CLOUDY    23  23 100 SW6       29.98F WCI  16
$$

NEZ011>018-030>034-042>045-180700-
NORTHEAST NEBRASKA

CITY           SKY/WX    TMP DP  RH WIND       PRES   REMARKS
NORFOLK        CLEAR     20  18  92 CALM      29.95S
6HR MIN TEMP:  19; 6HR MAX TEMP:  32;

ALBION         CLEAR     29  25  86 CALM      29.96S
BLAIR          CLEAR     27  26  94 SW6       29.97F FOG     WCI  20
COLUMBUS       CLEAR     21  18  88 CALM      29.98F
FREMONT        CLOUDY    28  26  94 CALM      29.97F FOG
TEKAMAH        CLEAR     23  19  85 S6        29.98F FOG     WCI  16
6HR MIN TEMP:  22; 6HR MAX TEMP:  30;

WAYNE          CLEAR     18  17  96 S5        29.95S WCI  11
$$

NEZ050>053-065>068-078-088>093-180700-
SOUTHEAST NEBRASKA

CITY           SKY/WX    TMP DP  RH WIND       PRES   REMARKS
LINCOLN        CLEAR     26  23  88 CALM      30.00F FOG
6HR MIN TEMP:  25; 6HR MAX TEMP:  35;

OMAHA EPPLEY   PTCLDY    28  22  78 CALM      30.00F
6HR MIN TEMP:  27; 6HR MAX TEMP:  30;

BEATRICE       FOG       26  26  98 S3        30.00F VSB 1/2
FALLS CITY     CLOUDY    37  35  92 W3        30.01S FOG
6HR MIN TEMP:  36; 6HR MAX TEMP:  38;

NEBRASKA CITY  CLEAR     30  30 100 SW3       29.99F FOG
PLATTSMOUTH    PTCLDY    30  30  99 SW5       29.99F FOG     WCI  25
$$

NEZ044-045-051>053-067-180700-
OMAHA AREA

CITY           SKY/WX    TMP DP  RH WIND       PRES   REMARKS
OMAHA EPPLEY   PTCLDY    28  22  78 CALM      30.00F
6HR MIN TEMP:  27; 6HR MAX TEMP:  30;

BLAIR          CLEAR     27  26  94 SW6       29.97F FOG     WCI  20
FREMONT        CLOUDY    28  26  94 CALM      29.97F FOG
MILLARD        CLOUDY    29  27  92 CALM      29.99F FOG
OFFUTT AFB     MOCLDY    26  24  92 CALM      29.99F
PLATTSMOUTH    PTCLDY    30  30  99 SW5       29.99F FOG     WCI  25
WAHOO          FAIR      24  21  90 S3        29.98F FOG
$$




USA.gov is the U.S. government's official web portal to all federal, state and local government web resources and services.